| time (UTC) | temp C | wind direction | speed KPH | gust KPH | rain 1hr cm | rain 24hr cm | rain mn cm | humidity % | barometer mb |
| 20260508203040 | 15 | 217 | 6.4 | 20.9 | 0.00 | 0.00 | 0.00 | 67 | 1022.0 |
| 20260508202527 | 15 | 200 | 9.7 | 20.9 | 0.00 | 0.00 | 0.00 | 66 | 1022.0 |
| 20260508202027 | 15 | 191 | 8.0 | 20.9 | 0.00 | 0.00 | 0.00 | 65 | 1022.0 |
| 20260508201544 | 14 | 219 | 6.4 | 19.3 | 0.00 | 0.00 | 0.00 | 66 | 1022.0 |
| 20260508201027 | 14 | 182 | 11.3 | 20.9 | 0.00 | 0.00 | 0.00 | 67 | 1022.0 |
| 20260508200527 | 14 | 197 | 6.4 | 20.9 | 0.00 | 0.00 | 0.00 | 66 | 1022.0 |
| 20260508200047 | 14 | 261 | 11.3 | 20.9 | 0.00 | 0.00 | 0.00 | 67 | 1021.9 |
| 20260508195526 | 14 | 233 | 11.3 | 20.9 | 0.00 | 0.00 | 0.00 | 68 | 1021.9 |
| 20260508195030 | 14 | 245 | 9.7 | 17.7 | 0.00 | 0.00 | 0.00 | 66 | 1021.9 |
| 20260508194546 | 14 | 199 | 8.0 | 19.3 | 0.00 | 0.00 | 0.00 | 68 | 1021.9 |
| 20260508194026 | 14 | 259 | 9.7 | 19.3 | 0.00 | 0.00 | 0.00 | 69 | 1021.8 |
| 20260508193527 | 14 | 202 | 8.0 | 17.7 | 0.00 | 0.00 | 0.00 | 70 | 1021.9 |
| 20260508193045 | 14 | 197 | 6.4 | 16.1 | 0.00 | 0.00 | 0.00 | 69 | 1021.8 |
| 20260508192526 | 14 | 259 | 6.4 | 16.1 | 0.00 | 0.00 | 0.00 | 70 | 1021.8 |
| 20260508192026 | 13 | 253 | 9.7 | 19.3 | 0.00 | 0.00 | 0.00 | 71 | 1021.9 |
| 20260508191539 | 13 | 195 | 11.3 | 22.5 | 0.00 | 0.00 | 0.00 | 71 | 1022.0 |
| 20260508191027 | 13 | 205 | 11.3 | 22.5 | 0.00 | 0.00 | 0.00 | 69 | 1021.9 |
| 20260508190526 | 13 | 182 | 11.3 | 20.9 | 0.00 | 0.00 | 0.00 | 72 | 1021.9 |
| 20260508190053 | 13 | 194 | 8.0 | 14.5 | 0.00 | 0.00 | 0.00 | 73 | 1021.9 |
| 20260508185527 | 13 | 258 | 6.4 | 14.5 | 0.00 | 0.00 | 0.00 | 75 | 1021.9 |
| 20260508185028 | 13 | 273 | 4.8 | 14.5 | 0.00 | 0.00 | 0.00 | 73 | 1021.9 |
| 20260508184556 | 12 | 225 | 8.0 | 12.9 | 0.00 | 0.00 | 0.00 | 73 | 1021.9 |
| 20260508184026 | 12 | 220 | 8.0 | 17.7 | 0.00 | 0.00 | 0.00 | 74 | 1021.9 |
| 20260508183526 | 12 | 209 | 9.7 | 17.7 | 0.00 | 0.00 | 0.00 | 74 | 1021.9 |
| 20260508183040 | 12 | 193 | 6.4 | 19.3 | 0.00 | 0.00 | 0.00 | 75 | 1021.9 |
| 20260508182527 | 12 | 256 | 9.7 | 19.3 | 0.00 | 0.00 | 0.00 | 74 | 1022.0 |
| 20260508182026 | 12 | 210 | 8.0 | 14.5 | 0.00 | 0.00 | 0.00 | 74 | 1022.0 |
| 20260508181550 | 12 | 232 | 4.8 | 14.5 | 0.00 | 0.00 | 0.00 | 76 | 1021.9 |
| 20260508181027 | 12 | 243 | 6.4 | 14.5 | 0.00 | 0.00 | 0.00 | 75 | 1021.9 |
| 20260508180526 | 12 | 236 | 4.8 | 14.5 | 0.00 | 0.00 | 0.00 | 75 | 1021.8 |
| 20260508180039 | 12 | 196 | 6.4 | 14.5 | 0.00 | 0.00 | 0.00 | 76 | 1021.7 |
| 20260508175527 | 12 | 242 | 6.4 | 14.5 | 0.00 | 0.00 | 0.00 | 75 | 1021.9 |
| 20260508175029 | 11 | 230 | 8.0 | 16.1 | 0.00 | 0.00 | 0.00 | 75 | 1021.8 |
| 20260508174546 | 11 | 198 | 6.4 | 17.7 | 0.00 | 0.00 | 0.00 | 77 | 1021.7 |
| 20260508174027 | 11 | 266 | 6.4 | 17.7 | 0.00 | 0.00 | 0.00 | 76 | 1021.7 |
| 20260508173527 | 11 | 181 | 11.3 | 17.7 | 0.00 | 0.00 | 0.00 | 76 | 1021.7 |
| 20260508173046 | 11 | 206 | 4.8 | 16.1 | 0.00 | 0.00 | 0.00 | 77 | 1021.7 |
| 20260508172527 | 11 | 190 | 4.8 | 9.7 | 0.00 | 0.00 | 0.00 | 77 | 1021.6 |
| 20260508172027 | 11 | 239 | 4.8 | 16.1 | 0.00 | 0.00 | 0.00 | 78 | 1021.5 |
| 20260508171541 | 11 | 223 | 6.4 | 16.1 | 0.00 | 0.00 | 0.00 | 77 | 1021.5 |
| 20260508171026 | 11 | 228 | 8.0 | 14.5 | 0.00 | 0.00 | 0.00 | 77 | 1021.4 |
| 20260508170526 | 11 | 237 | 4.8 | 14.5 | 0.00 | 0.00 | 0.00 | 77 | 1021.2 |
| 20260508170042 | 11 | 240 | 6.4 | 14.5 | 0.00 | 0.00 | 0.00 | 77 | 1021.1 |
| 20260508165526 | 11 | 205 | 4.8 | 12.9 | 0.00 | 0.00 | 0.00 | 77 | 1021.0 |
| 20260508165026 | 11 | 186 | 4.8 | 14.5 | 0.00 | 0.00 | 0.00 | 79 | 1021.0 |
| 20260508164554 | 11 | 229 | 4.8 | 14.5 | 0.00 | 0.00 | 0.00 | 79 | 1021.1 |
| 20260508164027 | 11 | 236 | 8.0 | 14.5 | 0.00 | 0.00 | 0.00 | 79 | 1021.3 |
| 20260508163531 | 11 | 239 | 4.8 | 20.9 | 0.00 | 0.00 | 0.00 | 79 | 1021.4 |
| 20260508163047 | 11 | 202 | 9.7 | 20.9 | 0.00 | 0.00 | 0.00 | 79 | 1021.2 |
| 20260508162527 | 11 | 216 | 4.8 | 16.1 | 0.00 | 0.00 | 0.00 | 79 | 1021.3 |
| 20260508162029 | 11 | 240 | 8.0 | 22.5 | 0.00 | 0.00 | 0.00 | 78 | 1021.1 |
| 20260508161549 | 11 | 240 | 8.0 | 22.5 | 0.00 | 0.00 | 0.00 | 78 | 1020.9 |
| 20260508161027 | 11 | 169 | 8.0 | 16.1 | 0.00 | 0.00 | 0.00 | 77 | 1020.8 |
| 20260508160526 | 11 | 221 | 4.8 | 14.5 | 0.00 | 0.00 | 0.00 | 79 | 1020.8 |
| 20260508160043 | 11 | 207 | 4.8 | 14.5 | 0.00 | 0.00 | 0.00 | 79 | 1020.7 |
| 20260508155529 | 11 | 168 | 8.0 | 14.5 | 0.00 | 0.00 | 0.00 | 79 | 1020.7 |
| 20260508155027 | 11 | 251 | 4.8 | 14.5 | 0.00 | 0.00 | 0.00 | 80 | 1020.6 |
| 20260508154543 | 11 | 219 | 4.8 | 11.3 | 0.00 | 0.00 | 0.00 | 80 | 1020.7 |
| 20260508154026 | 10 | 248 | 6.4 | 11.3 | 0.00 | 0.00 | 0.00 | 81 | 1020.7 |
| 20260508153527 | 10 | 219 | 6.4 | 11.3 | 0.00 | 0.00 | 0.00 | 81 | 1020.6 |
| 20260508153041 | 10 | 242 | 4.8 | 12.9 | 0.00 | 0.00 | 0.00 | 81 | 1020.6 |
| 20260508152526 | 10 | 235 | 3.2 | 14.5 | 0.00 | 0.00 | 0.00 | 80 | 1020.4 |
| 20260508152027 | 10 | 179 | 6.4 | 14.5 | 0.00 | 0.00 | 0.00 | 81 | 1020.4 |
| 20260508151541 | 10 | 190 | 8.0 | 20.9 | 0.00 | 0.00 | 0.00 | 81 | 1020.4 |
| 20260508151028 | 10 | 248 | 9.7 | 20.9 | 0.00 | 0.00 | 0.00 | 81 | 1020.4 |
| 20260508150529 | 10 | 219 | 6.4 | 12.9 | 0.00 | 0.00 | 0.00 | 81 | 1020.5 |
| 20260508150040 | 10 | 227 | 6.4 | 17.7 | 0.00 | 0.00 | 0.00 | 82 | 1020.4 |
| 20260508145527 | 10 | 236 | 6.4 | 17.7 | 0.00 | 0.00 | 0.00 | 81 | 1020.2 |
| 20260508145027 | 10 | 240 | 6.4 | 12.9 | 0.00 | 0.00 | 0.00 | 82 | 1020.3 |
| 20260508144636 | 11 | 180 | 4.8 | 16.1 | 0.00 | 0.00 | 0.00 | 81 | 1020.3 |
| 20260508144026 | 11 | 207 | 8.0 | 16.1 | 0.00 | 0.00 | 0.00 | 82 | 1020.4 |
| 20260508143527 | 11 | 182 | 6.4 | 14.5 | 0.00 | 0.00 | 0.00 | 81 | 1020.3 |
| 20260508143044 | 11 | 194 | 8.0 | 14.5 | 0.00 | 0.00 | 0.00 | 83 | 1020.4 |
| 20260508142528 | 10 | 206 | 6.4 | 11.3 | 0.00 | 0.00 | 0.00 | 83 | 1020.4 |
| 20260508142026 | 10 | 199 | 4.8 | 17.7 | 0.00 | 0.00 | 0.00 | 82 | 1020.4 |
| 20260508141551 | 10 | 226 | 6.4 | 17.7 | 0.00 | 0.00 | 0.00 | 84 | 1020.3 |
| 20260508141026 | 10 | 209 | 8.0 | 17.7 | 0.00 | 0.00 | 0.00 | 84 | 1020.3 |
| 20260508140528 | 10 | 213 | 9.7 | 16.1 | 0.00 | 0.00 | 0.00 | 85 | 1020.3 |
| 20260508140048 | 10 | 197 | 4.8 | 12.9 | 0.00 | 0.00 | 0.00 | 86 | 1020.0 |
| 20260508135529 | 9 | 188 | 6.4 | 12.9 | 0.00 | 0.00 | 0.00 | 85 | 1020.0 |
| 20260508135029 | 9 | 210 | 4.8 | 11.3 | 0.00 | 0.00 | 0.00 | 86 | 1019.9 |
| 20260508134544 | 9 | 211 | 4.8 | 16.1 | 0.00 | 0.00 | 0.00 | 86 | 1019.8 |
| 20260508134028 | 9 | 208 | 6.4 | 17.7 | 0.00 | 0.00 | 0.00 | 86 | 1019.6 |
| 20260508133529 | 8 | 225 | 8.0 | 17.7 | 0.00 | 0.00 | 0.00 | 87 | 1019.7 |
| 20260508133108 | 8 | 200 | 8.0 | 14.5 | 0.00 | 0.00 | 0.00 | 88 | 1019.6 |
| 20260508132526 | 8 | 223 | 4.8 | 11.3 | 0.00 | 0.00 | 0.00 | 88 | 1019.6 |
| 20260508132026 | 8 | 163 | 4.8 | 14.5 | 0.00 | 0.00 | 0.00 | 88 | 1019.5 |
| 20260508131542 | 8 | 196 | 6.4 | 14.5 | 0.00 | 0.00 | 0.00 | 88 | 1019.4 |
| 20260508131029 | 8 | 184 | 8.0 | 12.9 | 0.00 | 0.00 | 0.00 | 88 | 1019.4 |
| 20260508130526 | 8 | 155 | 4.8 | 12.9 | 0.00 | 0.00 | 0.00 | 88 | 1019.4 |
| 20260508130045 | 8 | 152 | 3.2 | 16.1 | 0.00 | 0.00 | 0.00 | 88 | 1019.3 |
| 20260508125527 | 8 | 190 | 8.0 | 16.1 | 0.00 | 0.00 | 0.00 | 89 | 1019.3 |
| 20260508125027 | 8 | 165 | 4.8 | 14.5 | 0.00 | 0.00 | 0.00 | 89 | 1019.0 |
| 20260508124540 | 8 | 196 | 3.2 | 16.1 | 0.00 | 0.00 | 0.00 | 89 | 1018.9 |
| 20260508124027 | 8 | 235 | 6.4 | 16.1 | 0.00 | 0.00 | 0.00 | 89 | 1018.9 |
| 20260508123531 | 8 | 174 | 4.8 | 9.7 | 0.00 | 0.00 | 0.00 | 89 | 1018.8 |
| 20260508123059 | 8 | 155 | 4.8 | 9.7 | 0.00 | 0.00 | 0.00 | 89 | 1018.8 |
| 20260508122526 | 8 | 198 | 4.8 | 11.3 | 0.00 | 0.00 | 0.00 | 88 | 1018.8 |
| 20260508122026 | 8 | 175 | 3.2 | 12.9 | 0.00 | 0.00 | 0.00 | 88 | 1018.9 |
| 20260508121540 | 8 | 182 | 6.4 | 12.9 | 0.00 | 0.00 | 0.00 | 88 | 1018.9 |
| 20260508121028 | 8 | 198 | 4.8 | 11.3 | 0.00 | 0.00 | 0.00 | 89 | 1018.8 |
| 20260508120526 | 8 | 205 | 3.2 | 12.9 | 0.00 | 0.00 | 0.00 | 89 | 1018.9 |
| 20260508120040 | 8 | 259 | 4.8 | 14.5 | 0.00 | 0.00 | 0.00 | 90 | 1018.7 |
| 20260508115528 | 8 | 166 | 4.8 | 14.5 | 0.00 | 0.00 | 0.00 | 91 | 1018.7 |
| 20260508115026 | 8 | 207 | 4.8 | 14.5 | 0.00 | 0.00 | 0.00 | 91 | 1018.7 |
| 20260508114546 | 8 | 211 | 4.8 | 14.5 | 0.00 | 0.00 | 0.00 | 93 | 1018.6 |
| 20260508114026 | 7 | 219 | 3.2 | 8.0 | 0.00 | 0.00 | 0.00 | 94 | 1018.8 |
| 20260508113527 | 7 | 220 | 3.2 | 8.0 | 0.00 | 0.00 | 0.00 | 94 | 1018.6 |
| 20260508113059 | 7 | 159 | 0.0 | 3.2 | 0.00 | 0.00 | 0.00 | 94 | 1018.5 |
| 20260508112529 | 7 | 162 | 1.6 | 3.2 | 0.00 | 0.00 | 0.00 | 95 | 1018.6 |
| 20260508112027 | 7 | 126 | 1.6 | 3.2 | 0.00 | 0.00 | 0.00 | 95 | 1018.5 |
| 20260508111545 | 7 | 123 | 1.6 | 3.2 | 0.00 | 0.00 | 0.00 | 95 | 1018.5 |
| 20260508111025 | 7 | 118 | 1.6 | 3.2 | 0.00 | 0.00 | 0.00 | 95 | 1018.4 |
| 20260508110527 | 7 | 107 | 0.0 | 3.2 | 0.00 | 0.00 | 0.00 | 95 | 1018.3 |
| 20260508110050 | 7 | 157 | 1.6 | 3.2 | 0.00 | 0.00 | 0.00 | 95 | 1018.3 |
| 20260508105526 | 7 | 113 | 1.6 | 3.2 | 0.00 | 0.00 | 0.00 | 95 | 1018.3 |
| 20260508105027 | 7 | 138 | 0.0 | 3.2 | 0.00 | 0.00 | 0.00 | 95 | 1018.1 |
| 20260508104541 | 7 | 142 | 1.6 | 3.2 | 0.00 | 0.00 | 0.00 | 95 | 1018.1 |
| 20260508104026 | 6 | 114 | 1.6 | 3.2 | 0.00 | 0.00 | 0.00 | 95 | 1018.1 |
| 20260508103526 | 6 | 115 | 0.0 | 1.6 | 0.00 | 0.00 | 0.00 | 94 | 1018.1 |
| 20260508103047 | 7 | 0 | 0.0 | 1.6 | 0.00 | 0.00 | 0.00 | 95 | 1018.0 |
| 20260508102526 | 7 | 115 | 1.6 | 1.6 | 0.00 | 0.00 | 0.00 | 95 | 1017.9 |
| 20260508102027 | 7 | 130 | 1.6 | 1.6 | 0.00 | 0.00 | 0.00 | 95 | 1017.8 |
| 20260508101537 | 7 | 121 | 0.0 | 1.6 | 0.00 | 0.00 | 0.00 | 94 | 1017.9 |
| 20260508101026 | 7 | 121 | 0.0 | 1.6 | 0.00 | 0.00 | 0.00 | 95 | 1017.7 |
| 20260508100526 | 7 | 121 | 0.0 | 1.6 | 0.00 | 0.00 | 0.00 | 94 | 1017.7 |
| 20260508100043 | 7 | 121 | 0.0 | 0.0 | 0.00 | 0.00 | 0.00 | 94 | 1017.7 |
| 20260508095526 | 7 | 0 | 0.0 | 0.0 | 0.00 | 0.00 | 0.00 | 94 | 1017.7 |
| 20260508095025 | 7 | 0 | 0.0 | 1.6 | 0.00 | 0.00 | 0.00 | 94 | 1017.7 |
| 20260508094541 | 7 | 121 | 0.0 | 1.6 | 0.00 | 0.00 | 0.00 | 94 | 1017.7 |
| 20260508094025 | 7 | 121 | 0.0 | 1.6 | 0.00 | 0.00 | 0.00 | 94 | 1017.6 |
| 20260508093526 | 7 | 0 | 0.0 | 3.2 | 0.00 | 0.00 | 0.00 | 93 | 1017.5 |
| 20260508093041 | 7 | 121 | 1.6 | 3.2 | 0.00 | 0.00 | 0.00 | 94 | 1017.7 |
| 20260508092526 | 7 | 121 | 0.0 | 1.6 | 0.00 | 0.00 | 0.00 | 94 | 1017.6 |
| 20260508092026 | 7 | 121 | 0.0 | 1.6 | 0.00 | 0.00 | 0.00 | 94 | 1017.6 |
| 20260508091551 | 7 | 121 | 1.6 | 1.6 | 0.00 | 0.00 | 0.00 | 94 | 1017.7 |
| 20260508091026 | 7 | 0 | 0.0 | 0.0 | 0.00 | 0.00 | 0.00 | 93 | 1017.7 |
| 20260508090526 | 7 | 0 | 0.0 | 1.6 | 0.00 | 0.00 | 0.00 | 93 | 1017.6 |
| 20260508090104 | 7 | 0 | 0.0 | 1.6 | 0.00 | 0.00 | 0.00 | 94 | 1017.6 |
| 20260508085526 | 7 | 121 | 0.0 | 1.6 | 0.00 | 0.00 | 0.00 | 94 | 1017.5 |
| 20260508085026 | 7 | 121 | 0.0 | 1.6 | 0.00 | 0.00 | 0.00 | 94 | 1017.5 |
| 20260508084542 | 7 | 0 | 0.0 | 1.6 | 0.00 | 0.00 | 0.00 | 94 | 1017.6 |
| 20260508084028 | 7 | 121 | 0.0 | 1.6 | 0.00 | 0.00 | 0.00 | 93 | 1017.6 |
| 20260508083524 | 7 | 121 | 1.6 | 1.6 | 0.00 | 0.00 | 0.00 | 94 | 1017.6 |
| 20260508083043 | 7 | 121 | 0.0 | 1.6 | 0.00 | 0.00 | 0.00 | 93 | 1017.5 |
| 20260508082529 | 7 | 121 | 0.0 | 1.6 | 0.00 | 0.00 | 0.00 | 93 | 1017.5 |
| 20260508082030 | 7 | 0 | 0.0 | 1.6 | 0.00 | 0.00 | 0.00 | 93 | 1017.5 |
| 20260508081541 | 7 | 121 | 0.0 | 1.6 | 0.00 | 0.00 | 0.00 | 93 | 1017.5 |
| 20260508081028 | 8 | 0 | 0.0 | 1.6 | 0.00 | 0.00 | 0.00 | 93 | 1017.5 |
| 20260508080529 | 8 | 121 | 0.0 | 1.6 | 0.00 | 0.00 | 0.00 | 93 | 1017.4 |
| 20260508080040 | 7 | 143 | 0.0 | 1.6 | 0.00 | 0.00 | 0.00 | 93 | 1017.4 |
| 20260508075527 | 7 | 143 | 0.0 | 1.6 | 0.00 | 0.00 | 0.00 | 93 | 1017.4 |
| 20260508075027 | 8 | 123 | 0.0 | 1.6 | 0.00 | 0.00 | 0.00 | 93 | 1017.3 |
| 20260508074544 | 8 | 123 | 0.0 | 0.0 | 0.00 | 0.00 | 0.00 | 92 | 1017.3 |
| 20260508074025 | 8 | 0 | 0.0 | 0.0 | 0.00 | 0.00 | 0.00 | 92 | 1017.2 |
| 20260508073527 | 8 | 0 | 0.0 | 0.0 | 0.00 | 0.00 | 0.00 | 92 | 1017.3 |
| 20260508073040 | 8 | 0 | 0.0 | 1.6 | 0.00 | 0.00 | 0.00 | 91 | 1017.1 |
| 20260508072530 | 8 | 0 | 0.0 | 1.6 | 0.00 | 0.00 | 0.00 | 92 | 1017.1 |
| 20260508072029 | 8 | 121 | 1.6 | 1.6 | 0.00 | 0.00 | 0.00 | 92 | 1017.2 |
| 20260508071554 | 8 | 121 | 0.0 | 1.6 | 0.00 | 0.00 | 0.00 | 92 | 1017.1 |
| 20260508071028 | 8 | 121 | 0.0 | 1.6 | 0.00 | 0.00 | 0.00 | 92 | 1017.1 |
| 20260508070526 | 8 | 121 | 0.0 | 1.6 | 0.00 | 0.00 | 0.00 | 92 | 1017.2 |
| 20260508070044 | 8 | 0 | 0.0 | 1.6 | 0.00 | 0.00 | 0.00 | 92 | 1017.3 |
| 20260508065526 | 8 | 121 | 0.0 | 1.6 | 0.00 | 0.00 | 0.00 | 92 | 1017.3 |
| 20260508065025 | 8 | 121 | 1.6 | 1.6 | 0.00 | 0.00 | 0.00 | 92 | 1017.3 |
| 20260508064543 | 8 | 121 | 0.0 | 1.6 | 0.00 | 0.00 | 0.00 | 92 | 1017.4 |
| 20260508064026 | 8 | 121 | 0.0 | 1.6 | 0.00 | 0.00 | 0.00 | 91 | 1017.4 |
| 20260508063526 | 8 | 0 | 0.0 | 1.6 | 0.00 | 0.00 | 0.00 | 91 | 1017.3 |
| 20260508063041 | 8 | 0 | 0.0 | 1.6 | 0.00 | 0.00 | 0.00 | 91 | 1017.3 |
| 20260508062525 | 9 | 121 | 0.0 | 1.6 | 0.00 | 0.00 | 0.00 | 90 | 1017.4 |
| 20260508062025 | 9 | 0 | 0.0 | 1.6 | 0.00 | 0.00 | 0.00 | 90 | 1017.3 |
| 20260508061540 | 9 | 121 | 1.6 | 1.6 | 0.00 | 0.00 | 0.00 | 90 | 1017.3 |
| 20260508061026 | 9 | 0 | 0.0 | 1.6 | 0.00 | 0.00 | 0.00 | 90 | 1017.3 |
| 20260508060525 | 9 | 121 | 0.0 | 1.6 | 0.00 | 0.00 | 0.00 | 89 | 1017.3 |
| 20260508060040 | 10 | 121 | 0.0 | 1.6 | 0.00 | 0.00 | 0.00 | 88 | 1017.3 |
| 20260508055524 | 10 | 130 | 1.6 | 3.2 | 0.00 | 0.00 | 0.00 | 88 | 1017.3 |
| 20260508055024 | 10 | 137 | 1.6 | 3.2 | 0.00 | 0.00 | 0.00 | 88 | 1017.4 |
| 20260508054540 | 10 | 137 | 1.6 | 1.6 | 0.00 | 0.00 | 0.00 | 88 | 1017.3 |
| 20260508054025 | 10 | 137 | 0.0 | 1.6 | 0.00 | 0.00 | 0.00 | 88 | 1017.3 |
| 20260508053527 | 10 | 137 | 0.0 | 1.6 | 0.00 | 0.00 | 0.00 | 87 | 1017.3 |
| 20260508053100 | 10 | 0 | 0.0 | 3.2 | 0.00 | 0.00 | 0.00 | 87 | 1017.4 |
| 20260508052525 | 10 | 136 | 1.6 | 4.8 | 0.00 | 0.00 | 0.00 | 88 | 1017.5 |
| 20260508052023 | 10 | 138 | 1.6 | 6.4 | 0.00 | 0.00 | 0.00 | 87 | 1017.4 |
| 20260508051545 | 10 | 156 | 3.2 | 6.4 | 0.00 | 0.00 | 0.00 | 86 | 1017.5 |
| 20260508051025 | 10 | 156 | 1.6 | 4.8 | 0.00 | 0.00 | 0.00 | 85 | 1017.4 |
| 20260508050525 | 11 | 128 | 1.6 | 3.2 | 0.00 | 0.00 | 0.00 | 85 | 1017.4 |
| 20260508050042 | 11 | 160 | 1.6 | 3.2 | 0.00 | 0.00 | 0.00 | 85 | 1017.4 |
| 20260508045528 | 11 | 163 | 1.6 | 3.2 | 0.00 | 0.00 | 0.00 | 85 | 1017.4 |
| 20260508045024 | 11 | 156 | 1.6 | 3.2 | 0.00 | 0.00 | 0.00 | 84 | 1017.5 |
| 20260508044540 | 11 | 156 | 3.2 | 3.2 | 0.00 | 0.00 | 0.00 | 83 | 1017.4 |
| 20260508044027 | 11 | 159 | 0.0 | 1.6 | 0.00 | 0.00 | 0.00 | 82 | 1017.4 |
| 20260508043525 | 11 | 159 | 0.0 | 1.6 | 0.00 | 0.00 | 0.00 | 83 | 1017.3 |
| 20260508043047 | 11 | 0 | 0.0 | 1.6 | 0.00 | 0.00 | 0.00 | 83 | 1017.3 |
| 20260508042524 | 11 | 146 | 0.0 | 1.6 | 0.00 | 0.00 | 0.00 | 83 | 1017.4 |
| 20260508042024 | 11 | 0 | 0.0 | 1.6 | 0.00 | 0.00 | 0.00 | 84 | 1017.4 |
| 20260508041610 | 11 | 165 | 0.0 | 1.6 | 0.00 | 0.00 | 0.00 | 84 | 1017.4 |
| 20260508041024 | 11 | 165 | 0.0 | 1.6 | 0.00 | 0.00 | 0.00 | 83 | 1017.5 |
| 20260508040524 | 12 | 166 | 0.0 | 1.6 | 0.00 | 0.00 | 0.00 | 84 | 1017.4 |
| 20260508040104 | 12 | 0 | 0.0 | 1.6 | 0.00 | 0.00 | 0.00 | 82 | 1017.4 |
| 20260508035527 | 12 | 0 | 0.0 | 1.6 | 0.00 | 0.00 | 0.00 | 79 | 1017.3 |
| 20260508035027 | 12 | 0 | 0.0 | 1.6 | 0.00 | 0.00 | 0.00 | 78 | 1017.2 |
| 20260508034541 | 13 | 0 | 0.0 | 1.6 | 0.00 | 0.00 | 0.00 | 78 | 1017.2 |
| 20260508034025 | 13 | 0 | 0.0 | 1.6 | 0.00 | 0.00 | 0.00 | 77 | 1017.1 |
| 20260508033524 | 13 | 126 | 0.0 | 3.2 | 0.00 | 0.00 | 0.00 | 76 | 1016.9 |
| 20260508033040 | 13 | 193 | 1.6 | 4.8 | 0.00 | 0.00 | 0.00 | 75 | 1016.8 |
| 20260508032525 | 14 | 205 | 1.6 | 4.8 | 0.00 | 0.00 | 0.00 | 73 | 1016.8 |
| 20260508032025 | 14 | 142 | 1.6 | 3.2 | 0.00 | 0.00 | 0.00 | 73 | 1016.9 |
| 20260508031540 | 15 | 151 | 1.6 | 3.2 | 0.00 | 0.00 | 0.00 | 72 | 1016.9 |
| 20260508031024 | 15 | 236 | 0.0 | 6.4 | 0.00 | 0.00 | 0.00 | 71 | 1016.8 |
| 20260508030528 | 15 | 219 | 1.6 | 6.4 | 0.00 | 0.00 | 0.00 | 71 | 1016.8 |
| 20260508030047 | 16 | 219 | 1.6 | 4.8 | 0.00 | 0.00 | 0.00 | 69 | 1016.7 |
| 20260508025524 | 16 | 217 | 1.6 | 9.7 | 0.00 | 0.00 | 0.00 | 69 | 1016.7 |
| 20260508025026 | 16 | 244 | 3.2 | 9.7 | 0.00 | 0.00 | 0.00 | 67 | 1016.6 |
| 20260508024546 | 17 | 311 | 1.6 | 4.8 | 0.00 | 0.00 | 0.00 | 66 | 1016.6 |
| 20260508024026 | 17 | 270 | 0.0 | 12.9 | 0.00 | 0.00 | 0.00 | 65 | 1016.5 |
| 20260508023528 | 18 | 281 | 3.2 | 12.9 | 0.00 | 0.00 | 0.00 | 63 | 1016.5 |
| 20260508023041 | 18 | 277 | 4.8 | 14.5 | 0.00 | 0.00 | 0.00 | 60 | 1016.6 |
| 20260508022526 | 19 | 341 | 4.8 | 14.5 | 0.00 | 0.00 | 0.00 | 58 | 1016.5 |
| 20260508022026 | 20 | 294 | 1.6 | 6.4 | 0.00 | 0.00 | 0.00 | 55 | 1016.5 |
| 20260508021540 | 21 | 172 | 0.0 | 1.6 | 0.00 | 0.00 | 0.00 | 54 | 1016.4 |
| 20260508021025 | 20 | 142 | 0.0 | 4.8 | 0.00 | 0.00 | 0.00 | 56 | 1016.5 |
| 20260508020627 | 20 | 142 | 1.6 | 4.8 | 0.00 | 0.00 | 0.00 | 55 | 1016.6 |
| 20260508020045 | 19 | 0 | 0.0 | 4.8 | 0.00 | 0.00 | 0.00 | 56 | 1016.6 |
| 20260508015525 | 19 | 92 | 0.0 | 4.8 | 0.00 | 0.00 | 0.00 | 56 | 1016.6 |
| 20260508015025 | 19 | 10 | 1.6 | 14.5 | 0.00 | 0.00 | 0.00 | 56 | 1016.6 |
| 20260508014541 | 19 | 16 | 3.2 | 14.5 | 0.00 | 0.00 | 0.00 | 56 | 1016.7 |
| 20260508014026 | 20 | 338 | 3.2 | 11.3 | 0.00 | 0.00 | 0.00 | 55 | 1016.7 |
| 20260508013527 | 20 | 336 | 4.8 | 11.3 | 0.00 | 0.00 | 0.00 | 55 | 1016.8 |
| 20260508013048 | 20 | 331 | 0.0 | 4.8 | 0.00 | 0.00 | 0.00 | 57 | 1016.8 |
| 20260508012525 | 20 | 309 | 1.6 | 6.4 | 0.00 | 0.00 | 0.00 | 53 | 1017.0 |
| 20260508012026 | 20 | 319 | 1.6 | 6.4 | 0.00 | 0.00 | 0.00 | 54 | 1017.0 |
| 20260508011551 | 21 | 0 | 0.0 | 3.2 | 0.00 | 0.00 | 0.00 | 53 | 1017.0 |
| 20260508011025 | 20 | 157 | 0.0 | 4.8 | 0.00 | 0.00 | 0.00 | 59 | 1017.0 |
| 20260508010525 | 20 | 138 | 0.0 | 4.8 | 0.00 | 0.00 | 0.00 | 56 | 1017.1 |
| 20260508010042 | 19 | 115 | 3.2 | 4.8 | 0.00 | 0.00 | 0.00 | 55 | 1017.1 |
| 20260508005526 | 19 | 94 | 0.0 | 11.3 | 0.00 | 0.00 | 0.00 | 56 | 1017.1 |
| 20260508005028 | 20 | 98 | 4.8 | 11.3 | 0.00 | 0.00 | 0.00 | 56 | 1017.2 |
| 20260508004543 | 20 | 109 | 0.0 | 4.8 | 0.00 | 0.00 | 0.00 | 56 | 1017.2 |
| 20260508004026 | 20 | 342 | 0.0 | 4.8 | 0.00 | 0.00 | 0.00 | 55 | 1017.3 |
| 20260508003525 | 20 | 107 | 1.6 | 4.8 | 0.00 | 0.00 | 0.00 | 53 | 1017.3 |
| 20260508003041 | 20 | 104 | 1.6 | 8.0 | 0.00 | 0.00 | 0.00 | 54 | 1017.3 |
| 20260508002525 | 20 | 257 | 1.6 | 8.0 | 0.00 | 0.00 | 0.00 | 55 | 1017.4 |
| 20260508002026 | 20 | 199 | 3.2 | 8.0 | 0.00 | 0.00 | 0.00 | 56 | 1017.5 |
| 20260508001542 | 20 | 246 | 4.8 | 8.0 | 0.00 | 0.00 | 0.00 | 54 | 1017.6 |
| 20260508001025 | 21 | 174 | 0.0 | 4.8 | 0.00 | 0.00 | 0.00 | 53 | 1017.4 |
| 20260508000526 | 20 | 266 | 0.0 | 4.8 | 0.00 | 0.00 | 0.00 | 58 | 1017.6 |
| 20260508000038 | 20 | 229 | 1.6 | 6.4 | 0.00 | 0.00 | 0.00 | 54 | 1017.6 |
| 20260507235525 | 20 | 245 | 0.0 | 6.4 | 0.00 | 0.00 | 0.00 | 57 | 1017.6 |
| 20260507235025 | 19 | 238 | 3.2 | 6.4 | 0.00 | 0.00 | 0.00 | 55 | 1017.6 |
| 20260507234541 | 19 | 0 | 1.6 | 8.0 | 0.00 | 0.00 | 0.00 | 55 | 1017.7 |
| 20260507234025 | 19 | 138 | 3.2 | 8.0 | 0.00 | 0.00 | 0.00 | 56 | 1017.8 |
| 20260507233526 | 19 | 150 | 4.8 | 8.0 | 0.00 | 0.00 | 0.00 | 55 | 1017.8 |
| 20260507233054 | 19 | 138 | 1.6 | 4.8 | 0.00 | 0.00 | 0.00 | 55 | 1017.9 |
| 20260507232525 | 19 | 123 | 1.6 | 6.4 | 0.00 | 0.00 | 0.00 | 58 | 1018.0 |
| 20260507232025 | 18 | 0 | 3.2 | 11.3 | 0.00 | 0.00 | 0.00 | 57 | 1018.1 |
| 20260507231540 | 18 | 282 | 3.2 | 11.3 | 0.00 | 0.00 | 0.00 | 56 | 1018.1 |
| 20260507231025 | 18 | 284 | 4.8 | 11.3 | 0.00 | 0.00 | 0.00 | 56 | 1018.1 |
| 20260507230526 | 18 | 242 | 3.2 | 11.3 | 0.00 | 0.00 | 0.00 | 56 | 1018.2 |
| 20260507230040 | 18 | 234 | 3.2 | 11.3 | 0.00 | 0.00 | 0.00 | 58 | 1018.3 |
| 20260507225527 | 18 | 278 | 4.8 | 8.0 | 0.00 | 0.00 | 0.00 | 56 | 1018.3 |
| 20260507225029 | 18 | 289 | 3.2 | 6.4 | 0.00 | 0.00 | 0.00 | 56 | 1018.3 |
| 20260507224553 | 18 | 246 | 1.6 | 6.4 | 0.00 | 0.00 | 0.00 | 57 | 1018.5 |
| 20260507224025 | 18 | 294 | 3.2 | 9.7 | 0.00 | 0.00 | 0.00 | 56 | 1018.6 |
| 20260507223527 | 18 | 227 | 4.8 | 12.9 | 0.00 | 0.00 | 0.00 | 62 | 1018.6 |
| 20260507223042 | 18 | 222 | 6.4 | 12.9 | 0.00 | 0.00 | 0.00 | 57 | 1018.5 |
| 20260507222528 | 19 | 132 | 4.8 | 12.9 | 0.00 | 0.00 | 0.00 | 59 | 1018.6 |
| 20260507222025 | 18 | 67 | 1.6 | 4.8 | 0.00 | 0.00 | 0.00 | 61 | 1018.7 |
| 20260507221540 | 18 | 65 | 1.6 | 12.9 | 0.00 | 0.00 | 0.00 | 58 | 1018.8 |
| 20260507221024 | 18 | 107 | 4.8 | 12.9 | 0.00 | 0.00 | 0.00 | 59 | 1018.9 |
| 20260507220526 | 18 | 173 | 3.2 | 9.7 | 0.00 | 0.00 | 0.00 | 60 | 1019.1 |
| 20260507220042 | 17 | 269 | 3.2 | 6.4 | 0.00 | 0.00 | 0.00 | 60 | 1019.0 |
| 20260507215529 | 17 | 250 | 3.2 | 6.4 | 0.00 | 0.00 | 0.00 | 63 | 1019.2 |
| 20260507215025 | 17 | 241 | 3.2 | 12.9 | 0.00 | 0.00 | 0.00 | 60 | 1019.3 |
| 20260507214541 | 17 | 276 | 4.8 | 12.9 | 0.00 | 0.00 | 0.00 | 64 | 1019.2 |
| 20260507214028 | 17 | 280 | 4.8 | 12.9 | 0.00 | 0.00 | 0.00 | 61 | 1019.2 |
| 20260507213525 | 17 | 42 | 1.6 | 11.3 | 0.00 | 0.00 | 0.00 | 64 | 1019.2 |
| 20260507213041 | 17 | 299 | 3.2 | 11.3 | 0.00 | 0.00 | 0.00 | 62 | 1019.3 |
| 20260507212525 | 17 | 270 | 3.2 | 9.7 | 0.00 | 0.00 | 0.00 | 62 | 1019.2 |
| 20260507212025 | 17 | 60 | 1.6 | 14.5 | 0.00 | 0.00 | 0.00 | 64 | 1019.3 |
| 20260507211542 | 16 | 313 | 6.4 | 14.5 | 0.00 | 0.00 | 0.00 | 63 | 1019.4 |
| 20260507211027 | 16 | 316 | 8.0 | 14.5 | 0.00 | 0.00 | 0.00 | 61 | 1019.3 |
| 20260507210525 | 17 | 294 | 3.2 | 12.9 | 0.00 | 0.00 | 0.00 | 63 | 1019.5 |
| 20260507210049 | 17 | 128 | 1.6 | 9.7 | 0.00 | 0.00 | 0.00 | 62 | 1019.6 |
| 20260507205525 | 17 | 242 | 4.8 | 9.7 | 0.00 | 0.00 | 0.00 | 61 | 1019.7 |
| 20260507205026 | 17 | 76 | 1.6 | 8.0 | 0.00 | 0.00 | 0.00 | 65 | 1019.7 |
| 20260507204545 | 16 | 162 | 3.2 | 12.9 | 0.00 | 0.00 | 0.00 | 64 | 1019.8 |
| 20260507204025 | 16 | 39 | 4.8 | 16.1 | 0.00 | 0.00 | 0.00 | 66 | 1019.9 |
| 20260507203526 | 16 | 345 | 3.2 | 16.1 | 0.00 | 0.00 | 0.00 | 65 | 1020.0 |